#timestamp,LO_Frequency,Hit,StdDev 
1459314015.1,286047002.2,N
1459314016.0,286047002.2,N
1459314035.8,286047000.2,N
1459314055.6,286047004.1,N
1459314075.5,286047001.9,N
1459314095.3,286047000.2,N
1459314115.1,286047004.1,N
1459314135.9,286046999.8,N
1459314155.7,286047000.2,N
1459314175.5,286047001.8,N
1459314195.4,286047005.0,N
1459314215.2,286047005.7,N
1459314235.0,286047004.8,N
1459314235.9,286047004.8,N
1459314255.8,286047007.6,Y
1459314275.6,286047006.0,P
1459314295.4,286047003.8,N
1459314315.3,286047003.2,N
1459314335.1,286047006.0,Y
1459314336.0,286047006.0,P
1459314355.8,286047001.1,N
1459314375.7,286046997.1,N
1459314395.5,286047001.0,N
1459314415.3,286046997.1,N
1459314435.2,286046996.2,N
1459314455.9,286046994.6,N
1459314475.7,286046993.9,N
1459314495.5,286046996.4,N
1459314515.4,286046997.5,N
1459314535.2,286046993.7,N
1459314555.0,286046993.0,N
1459314555.9,286046993.0,N
1459314575.8,286046993.2,N
1459314595.6,286046989.6,N
1459314615.4,286046991.0,N
1459314635.3,286046990.7,N
1459314655.1,286046991.6,N
1459314656.0,286046991.6,N
1459314675.8,286046986.9,N
1459314695.7,286046987.5,N
1459314715.5,286046987.3,N
1459314735.3,286046989.7,N
1459314755.2,286046990.9,N
1459314775.9,286046992.1,N
1459314795.7,286046991.7,N
1459314815.5,286046997.4,N
1459314835.4,286046996.6,N
1459314855.2,286046998.2,N
1459314875.0,286046998.1,N
1459314875.9,286046998.1,N
1459314895.8,286047001.8,N
1459314915.6,286047000.4,N
1459314935.4,286047001.8,N
1459314955.3,286047003.7,N
1459314975.1,286047002.9,N
1459314976.0,286047002.9,N
1459314995.8,286047003.0,N
1459315015.7,286047005.1,N
1459315035.5,286047004.1,N
1459315055.3,286047002.5,N
1459315075.2,286046998.6,N
1459315095.9,286046999.2,N
1459315115.7,286047002.7,N
1459315135.5,286047000.9,N
1459315155.4,286047002.6,N
1459315175.2,286046998.9,N
1459315195.0,286046998.1,N
1459315195.9,286046998.1,N
1459315215.8,286047001.1,N
1459315235.6,286047000.1,N
1459315255.4,286046999.7,N
1459315275.3,286046998.3,N
1459315295.1,286046997.5,N
1459315315.8,286046993.6,N
1459315335.7,286046995.2,N
1459315355.5,286046994.9,N
1459315375.3,286046995.6,N
1459315395.2,286046991.8,N
1459315415.9,286046990.1,Y
1459315435.7,286046988.6,P
1459315455.6,286046985.5,N
1459315475.4,286046987.7,N
1459315495.2,286046985.3,N
1459315515.1,286046984.2,N
1459315516.0,286046984.2,Y
1459315535.8,286046999.2,P
1459315555.6,286047000.8,N
1459315575.5,286046999.2,N
1459315595.3,286046999.1,N
1459315615.1,286047001.0,N
1459315635.9,286046999.4,N
1459315655.7,286046997.2,N
1459315675.5,286046993.8,N
1459315695.3,286046994.2,N
1459315715.2,286046993.1,N
1459315735.9,286046990.1,N
1459315755.7,286046991.4,N
1459315775.6,286046991.6,N
1459315795.4,286046990.6,N
1459315815.2,286046993.5,N
1459315835.1,286046997.5,N
1459315836.0,286046997.5,N
1459315855.8,286046997.4,N
1459315875.6,286046998.7,N
1459315895.5,286046998.4,N
1459315915.3,286047000.9,N
1459315935.1,286047002.4,N
1459315955.8,286047000.1,N
1459315975.7,286047004.3,N
1459315995.5,286047003.5,N
1459316015.3,286047005.8,N
1459316035.2,286047004.9,N
1459316055.9,286047005.0,N
1459316075.7,286047005.3,N
1459316095.6,286047006.9,N
1459316115.4,286047008.7,N
1459316135.2,286047008.5,N
1459316155.1,286047006.7,N
1459316156.0,286047006.7,N
1459316175.8,286047007.6,N
1459316195.6,286047005.2,N
1459316215.5,286047005.1,N
1459316235.3,286047007.6,N
1459316255.1,286047009.1,N
1459316275.8,286047009.1,N
1459316295.7,286047009.9,N
1459316315.5,286047009.5,N
1459316335.3,286047006.3,N
1459316355.2,286047008.3,N
1459316375.9,286047009.0,N
1459316395.7,286047006.8,N
1459316415.6,286047005.2,N
1459316435.4,286047005.8,N
1459316455.2,286047007.6,N
1459316475.1,286047004.8,N
1459316476.0,286047004.8,N
1459316495.8,286047007.2,Y
1459316515.6,286046999.8,P
1459316535.5,286047000.7,N
1459316555.3,286046996.5,N
1459316575.1,286046999.2,N
1459316595.9,286046997.6,N
1459316615.7,286046997.1,N
1459316635.5,286046999.8,N
1459316655.3,286047001.6,N
1459316675.2,286047003.8,N
1459316695.0,286046998.1,N
1459316695.9,286046998.1,N
1459316715.7,286047000.5,N
1459316735.6,286046998.3,N
1459316755.4,286046998.6,N
1459316775.2,286046997.5,N
1459316795.1,286046996.9,N
1459316796.0,286046996.9,N
1459316815.8,286046997.8,N
1459316835.6,286046997.2,N
1459316855.5,286046999.6,N
1459316875.3,286046997.3,N
1459316895.1,286046997.6,N
1459316915.9,286046995.0,N
1459316935.7,286046993.7,N
1459316955.5,286046993.6,N
1459316975.4,286046992.2,N
1459316995.2,286046991.6,N
1459317015.0,286046990.6,Y
1459317015.9,286046990.6,P
1459317035.8,286046996.0,N
1459317055.6,286046993.8,N
1459317075.4,286046995.9,N
1459317095.3,286046995.4,N
1459317115.1,286046998.0,N
1459317116.0,286046998.0,N
1459317135.8,286046997.3,N
1459317155.7,286046998.8,N
1459317175.5,286046999.2,N
1459317195.3,286047002.8,N
1459317215.1,286047001.6,N
1459317235.9,286047001.9,N
1459317255.7,286047000.1,N
1459317275.5,286046999.9,N
1459317295.4,286046999.5,N
1459317315.2,286046995.6,N
1459317335.0,286046994.4,N
1459317335.9,286046994.4,N
1459317355.8,286046991.6,N
1459317375.6,286046986.2,Y
1459317395.4,286046988.2,P
1459317415.3,286046986.5,N
1459317435.1,286046985.8,P
1459317455.8,286046987.5,N
1459317475.7,286046989.1,N
1459317495.5,286046992.0,N
1459317515.3,286046995.7,N
1459317535.2,286046995.1,N
1459317555.9,286046995.1,N
1459317575.7,286046994.5,N
1459317595.5,286046997.2,N
